EHI
0 0 0 0 0 0 0 0 0 0 0 0 0 0 0 0 0 0 0 0 1 4 14 29 35 33 26 20 17 16 16 15 12 8 6 4 2 1 1 0 0 0 0 0 0 0 0 0 0
0 0 0 0 0 0 0 0 0 0 0 0 0 0 0 0 0 0 0 0 1 4 13 26 34 33 27 21 17 17 16 15 12 8 5 3 1 0 0 0 0 0 0 0 0 0 0 0 0
0 0 0 0 0 0 0 0 0 0 0 0 0 0 0 0 0 0 0 1 2 4 11 24 35 34 28 22 19 18 16 14 9 6 4 3 1 0 0 0 0 0 0 0 0 0 0 0 0
0 0 0 0 0 0 0 0 0 0 0 0 0 0 0 0 0 0 0 1 2 4 9 23 35 37 30 23 19 18 16 11 6 4 3 3 2 1 0 0 0 0 0 0 0 0 0 0 0
0 0 0 0 0 0 0 0 0 0 0 0 0 0 0 0 0 0 0 1 3 4 8 20 33 37 31 22 17 17 16 10 5 3 3 3 2 1 0 0 0 0 0 0 0 0 0 0 0
0 0 0 0 0 0 0 0 0 0 0 0 0 0 0 0 0 0 0 1 4 6 9 16 27 32 28 21 17 17 15 10 6 4 3 3 2 1 0 0 0 0 0 0 0 0 0 0 0
0 0 0 0 0 0 0 0 0 0 0 0 0 0 0 0 0 0 1 3 5 7 7 11 17 22 21 18 17 17 14 9 6 4 3 2 2 1 0 0 0 0 0 0 0 0 0 0 0
0 0 0 0 0 0 0 0 0 0 0 0 0 0 0 0 0 0 1 3 5 4 4 6 10 13 15 14 14 13 10 6 4 2 1 1 1 0 0 0 0 0 0 0 0 0 0 0 0
0 0 0 0 0 0 0 0 0 0 0 0 0 0 0 0 0 0 1 2 2 1 1 3 6 9 11 12 11 9 5 2 1 1 0 0 0 0 0 0 0 0 0 0 0 0 0 0 0
0 0 0 0 0 0 0 0 0 0 0 0 0 0 0 0 0 0 0 1 1 1 0 1 4 7 9 11 10 6 2 0 0 0 0 0 0 0 0 0 0 0 0 0 0 0 0 0 0
0 0 0 0 0 0 0 0 0 0 0 0 0 0 0 0 0 0 1 1 1 1 1 1 4 5 7 9 9 6 2 0 0 0 0 0 0 0 0 0 0 0 0 0 0 0 0 0 0
0 0 0 0 0 0 0 0 0 0 0 0 0 0 0 0 0 0 1 2 2 2 1 2 4 5 5 6 8 7 4 1 0 0 0 0 0 0 0 0 0 0 0 0 0 0 0 0 0
0 0 0 0 0 0 0 0 0 0 0 0 0 0 0 0 0 0 1 2 3 2 3 4 4 4 4 4 6 6 4 2 1 0 0 0 0 0 0 0 0 0 0 0 0 0 0 0 0
0 0 0 0 0 0 0 0 0 0 0 0 0 0 0 0 0 0 0 1 2 3 4 6 5 4 3 3 4 4 3 2 1 0 0 0 0 0 0 0 0 0 0 0 0 0 0 0 0
0 0 0 0 0 0 0 0 0 0 0 0 0 0 1 1 1 0 0 0 1 4 7 8 6 5 3 2 3 3 2 1 0 0 0 0 0 0 0 0 0 0 0 0 0 0 0 0 0
0 0 0 0 0 0 0 0 0 0 0 0 0 0 1 1 1 0 0 0 1 5 8 8 6 4 2 1 2 2 2 1 0 0 0 0 0 0 0 0 0 0 0 0 0 0 0 0 0
0 0 0 0 0 0 0 0 0 0 0 0 0 0 0 0 0 0 0 0 1 5 8 8 5 2 1 0 1 2 1 0 0 0 0 0 0 0 0 0 0 0 0 0 0 0 0 0 0
0 0 0 0 0 0 0 0 0 0 0 0 0 0 0 0 0 0 0 0 1 4 7 7 4 1 0 0 0 0 0 0 0 0 0 0 0 0 0 0 0 0 0 0 0 0 0 0 0
0 0 0 0 0 0 0 0 0 0 0 0 0 0 0 0 0 0 0 0 1 2 4 4 2 1 0 0 0 0 0 0 0 0 0 0 0 0 0 0 0 0 0 0 0 0 0 0 0
0 0 0 0 0 0 0 0 0 0 0 0 0 0 0 0 0 0 0 0 0 1 2 2 1 0 0 0 0 0 0 0 0 0 0 0 0 0 0 0 0 0 0 0 0 0 0 0 0
0 0 0 0 0 0 0 0 0 0 0 0 0 0 0 0 0 0 0 0 0 0 0 0 0 0 0 0 0 0 0 0 0 0 0 0 0 0 0 0 0 0 0 0 0 0 0 0 0
0 0 0 0 0 0 0 0 0 0 0 0 0 0 0 0 0 0 0 0 0 0 0 0 0 0 0 0 0 0 0 0 0 0 0 0 0 0 0 0 0 0 0 0 0 0 0 0 0
0 0 0 0 0 0 0 0 0 0 0 0 0 0 0 0 0 0 0 0 0 0 1 0 0 0 0 0 0 0 0 0 0 0 0 0 0 0 0 0 0 0 0 0 0 0 0 0 0
0 0 0 0 0 0 0 0 0 0 0 0 0 0 0 0 0 0 0 0 0 1 2 1 0 0 0 0 0 0 0 0 0 0 0 0 0 0 0 0 0 0 0 0 0 0 0 0 0
0 0 0 0 0 0 0 0 0 0 0 0 0 0 0 0 0 0 0 0 0 0 1 0 0 0 0 0 0 0 0 0 0 0 0 0 0 0 0 0 0 0 0 0 0 0 0 0 0
0 0 0 0 0 0 0 0 0 0 0 0 0 0 0 0 0 0 0 0 0 0 0 0 0 0 0 0 0 0 0 0 0 0 0 0 0 0 0 0 0 0 0 0 0 0 0 0 0
0 0 0 0 0 0 0 0 0 0 0 0 0 0 0 0 0 0 0 0 0 0 0 0 0 1 1 1 0 0 0 0 0 0 0 0 0 0 0 0 0 0 0 0 0 0 0 0 0
0 0 0 0 0 0 0 0 0 0 0 0 0 0 0 0 0 0 0 0 0 0 0 0 0 1 1 1 0 0 0 0 0 0 0 0 0 0 0 0 0 0 0 0 0 0 0 0 0
0 0 0 0 0 0 0 0 0 0 0 0 0 0 0 0 0 0 0 0 0 0 0 0 0 0 0 0 0 0 0 0 0 0 0 0 0 0 0 0 0 0 0 0 0 0 0 0 0
0 0 0 0 0 0 0 0 0 0 0 0 0 0 0 0 0 0 0 0 0 0 0 0 0 0 0 0 0 0 0 0 0 0 0 0 0 0 0 0 0 0 0 0 0 0 0 0 0
Wind_Speed
1 4 3 4 3 1 8 8 5 4 5 5 4 6 7 9 8 7 2 9 10 13 15 19 22 23 22 21 20 19 19 18 17 17 17 17 16 16 16 16 16 16 15 15 16 16 16 15 15
2 3 4 3 3 7 9 7 9 10 6 1 1 3 4 8 5 3 2 7 11 14 14 15 22 22 22 21 20 20 19 18 18 18 17 17 17 16 16 16 16 16 16 15 15 15 15 15 15
1 2 3 3 7 11 9 6 10 8 6 3 3 3 4 6 4 4 5 9 11 13 12 15 22 22 22 21 21 20 19 19 18 18 18 17 17 16 16 16 16 16 16 15 15 15 15 14 14
2 2 2 5 16 12 8 4 3 2 3 3 2 5 5 4 3 3 6 11 13 12 11 15 22 23 22 21 21 20 19 19 18 18 17 17 17 16 16 16 16 15 15 15 14 14 14 14 14
2 3 5 12 19 9 7 6 3 3 3 2 1 4 6 3 0 4 9 12 14 12 10 14 21 23 22 22 21 20 20 19 18 18 17 17 17 16 16 16 15 15 15 14 14 14 13 13 13
2 3 9 17 17 10 7 6 5 7 6 4 3 4 6 2 2 5 9 10 11 11 11 13 21 21 22 21 21 20 19 19 18 18 18 17 17 17 16 16 15 15 14 14 14 13 13 13 13
4 5 12 13 13 12 8 6 8 8 10 8 4 4 5 2 2 6 7 7 8 9 9 10 13 16 20 20 20 20 19 19 18 18 17 17 17 17 16 16 15 14 14 13 13 13 13 13 13
4 4 11 11 13 12 5 6 7 10 11 5 6 7 6 3 4 7 8 7 7 8 8 9 9 11 12 14 18 18 18 18 18 17 15 15 15 16 16 14 14 14 13 13 13 13 12 12 12
3 8 16 14 10 6 3 5 5 5 6 5 5 5 4 5 9 10 9 9 10 10 8 8 9 10 10 11 14 15 16 16 15 13 15 13 7 8 9 10 13 14 13 13 12 12 12 11 10
6 13 19 8 5 5 5 7 5 4 6 5 4 3 2 9 12 14 14 16 17 16 13 10 10 11 11 10 9 8 8 9 8 7 9 7 6 6 7 10 11 12 12 12 12 12 11 8 4
7 12 9 7 6 6 7 8 6 7 10 8 6 4 6 9 12 14 16 16 17 16 14 12 12 11 11 8 7 5 5 6 7 9 9 7 6 5 4 4 5 6 7 5 7 7 4 4 3
8 10 8 7 6 8 8 7 7 10 13 7 6 5 8 11 14 16 16 15 13 14 15 13 12 11 11 9 7 6 6 6 6 8 9 7 5 5 4 3 4 3 3 4 4 3 4 4 4
11 12 11 10 10 12 12 13 11 14 11 7 6 6 10 13 13 13 12 12 12 14 15 14 13 13 11 10 8 8 7 7 7 7 8 8 6 6 5 4 3 4 4 4 4 4 4 4 3
7 9 10 10 11 10 13 15 12 16 8 7 8 9 11 13 13 11 12 14 15 16 16 14 14 14 12 10 8 8 7 7 7 7 8 9 7 6 6 5 4 4 4 4 4 4 4 3 2
6 9 11 10 10 8 8 15 17 14 7 9 10 10 11 12 12 14 14 15 16 16 15 15 15 14 14 12 10 8 7 8 8 7 9 9 8 8 7 5 5 4 4 4 4 4 3 3 3
4 7 8 7 8 8 8 18 13 7 8 11 11 10 10 12 13 13 13 13 13 14 15 16 14 15 14 12 10 8 8 8 8 7 8 9 9 9 7 6 5 5 4 4 4 3 3 2 2
4 7 9 9 6 6 9 14 8 5 8 11 10 10 10 11 11 11 12 12 14 15 15 16 15 16 15 13 10 9 8 8 8 8 8 9 10 10 8 6 5 6 5 4 4 3 3 3 2
6 7 7 8 5 6 11 14 10 6 8 10 9 9 10 11 13 11 11 12 13 13 14 15 14 15 14 11 9 8 8 8 8 8 9 11 9 10 8 6 7 7 5 4 4 4 2 2 3
8 9 12 11 8 8 13 16 14 10 10 10 10 9 10 12 11 9 10 10 11 12 14 15 15 15 13 11 11 11 11 10 8 8 10 12 11 11 9 7 7 7 6 6 6 4 4 2 2
11 13 14 11 8 8 11 16 14 12 12 12 12 11 11 11 9 8 9 10 12 14 15 16 16 16 16 12 11 9 8 8 8 7 9 12 12 12 10 9 8 8 6 7 6 5 4 2 3
11 12 11 11 10 8 10 12 11 9 11 12 11 10 10 11 11 9 9 11 12 13 16 16 17 17 17 14 9 8 7 6 7 10 10 11 13 13 11 11 9 9 8 8 8 7 7 4 2
11 8 11 11 8 6 4 8 7 7 9 10 10 10 10 10 10 9 9 10 12 14 14 16 17 17 17 16 14 15 13 12 12 10 9 10 12 13 12 12 11 10 8 8 8 7 5 6 4
7 5 7 8 7 7 5 7 9 5 9 10 9 10 10 10 9 10 10 11 12 12 12 13 16 17 17 17 17 17 14 11 7 8 11 11 11 12 13 12 11 11 9 9 9 8 7 5 5
5 3 5 3 3 8 8 8 9 6 9 8 7 7 8 8 8 9 9 8 9 10 10 11 14 17 18 19 18 18 16 13 12 12 13 12 9 10 13 13 12 11 10 10 10 10 9 7 6
2 1 2 2 3 8 5 8 11 7 7 7 7 6 5 5 5 5 5 6 8 10 11 11 14 16 17 19 19 19 18 17 17 15 14 12 10 10 14 13 12 11 10 10 9 9 9 9 8
5 6 5 5 5 4 3 9 8 7 6 6 5 4 3 4 4 5 5 6 8 10 12 12 14 15 16 18 19 18 17 13 12 14 12 13 12 12 13 14 13 12 11 11 10 8 9 8 8
4 5 4 3 3 4 6 7 8 4 4 4 4 3 4 4 4 4 4 5 6 8 11 13 14 14 15 18 18 17 17 15 14 14 13 11 9 9 12 14 13 12 12 12 11 8 9 8 8
4 3 2 3 4 6 6 6 5 3 4 4 4 5 6 6 5 5 4 5 5 6 9 10 12 15 15 16 17 14 17 17 14 12 14 13 12 12 13 14 13 12 12 12 11 8 8 9 8
3 3 3 3 3 3 5 6 3 2 1 3 5 5 6 6 5 5 5 5 5 5 5 8 10 11 12 14 15 15 15 15 14 13 14 14 12 13 14 14 14 13 13 12 11 10 10 10 8
4 5 5 4 5 4 5 9 3 1 2 4 6 7 7 7 6 5 5 5 4 4 4 6 7 10 12 13 13 15 14 14 15 14 14 13 14 13 13 13 13 13 13 13 13 12 11 12 11
Wind_Direction
31 93 80 66 64 236 236 231 216 225 225 219 192 182 192 193 179 215 269 151 148 155 165 167 163 161 160 158 153 148 146 144 142 139 138 135 133 130 128 124 120 117 114 113 111 109 105 102 101
127 110 74 84 161 224 244 223 220 221 219 294 252 216 221 242 235 232 173 164 154 157 162 164 163 162 161 159 154 151 150 148 146 143 141 139 137 133 131 127 122 119 115 114 113 111 107 104 102
130 116 130 155 205 215 226 219 226 240 245 257 270 242 224 235 225 211 193 162 152 158 161 164 163 163 162 159 156 154 152 150 148 146 144 142 139 136 132 127 123 120 118 117 115 112 110 107 105
108 86 121 211 231 225 214 213 197 271 274 237 223 283 268 258 233 205 160 157 154 159 161 165 164 164 162 160 158 156 154 152 150 148 147 145 142 138 133 128 125 123 122 120 118 115 112 111 109
92 142 215 234 239 235 227 236 254 266 260 245 214 274 274 290 238 147 154 161 159 160 163 166 165 164 162 161 159 158 155 153 152 150 149 147 143 138 135 132 129 126 125 124 123 120 117 114 112
159 180 221 236 240 239 231 226 244 255 258 255 229 245 259 294 140 156 159 163 160 160 163 167 167 164 162 161 160 160 158 156 155 154 151 147 143 140 139 137 133 131 129 127 127 125 122 117 114
188 212 233 242 250 248 235 200 219 239 253 245 207 231 269 284 196 150 152 153 155 160 163 166 168 165 163 161 161 161 160 158 157 156 153 149 146 145 143 139 137 134 132 130 129 127 123 121 118
190 227 242 238 244 253 223 208 215 216 242 231 186 206 244 237 147 135 140 148 158 166 167 166 163 161 160 160 161 160 160 159 158 156 150 146 147 146 143 141 141 139 136 134 131 127 123 121 119
180 229 238 233 232 251 204 232 244 229 231 233 220 224 249 147 142 144 152 163 172 177 175 170 164 160 157 157 162 160 160 159 156 152 146 140 134 133 138 140 145 144 141 137 134 129 122 115 114
200 233 239 238 228 247 247 244 252 265 257 248 252 273 147 153 164 171 176 179 182 184 182 175 168 162 159 161 159 158 156 154 147 144 141 130 126 127 130 145 145 143 140 137 133 125 111 96 83
217 239 258 263 257 265 264 261 256 245 256 244 239 227 171 181 185 189 191 189 189 184 183 179 171 165 162 158 156 153 149 146 141 140 137 131 125 124 121 129 135 127 122 110 107 94 86 90 92
251 253 254 260 270 276 271 270 261 243 248 255 256 220 190 197 202 201 200 196 190 186 186 180 172 167 164 159 157 153 150 149 148 147 144 139 134 131 131 123 119 114 109 105 97 97 96 95 98
248 260 264 264 270 268 269 259 258 257 259 261 258 231 209 208 212 211 207 202 194 192 189 183 174 170 166 160 161 159 156 154 151 151 151 147 144 144 140 133 127 125 121 118 114 110 110 106 101
259 273 272 265 261 260 260 264 254 255 254 254 246 234 225 217 214 209 204 202 199 196 191 184 179 174 168 167 166 162 159 155 153 156 157 153 150 150 148 142 140 138 135 130 127 128 122 116 111
272 276 276 253 245 245 254 263 245 252 246 249 249 245 238 229 216 213 208 204 200 197 191 187 183 177 174 170 169 164 162 159 161 161 160 159 155 156 153 151 153 151 140 129 118 112 106 111 107
272 263 264 255 233 234 222 254 255 247 237 245 245 243 241 237 224 218 213 208 200 195 192 190 186 181 179 175 171 166 165 163 165 164 164 165 162 159 156 158 162 153 142 136 132 127 114 114 115
234 249 257 276 239 230 226 258 270 253 241 248 246 241 241 239 234 224 213 205 199 195 192 190 188 183 182 177 173 168 167 169 168 166 169 171 168 165 163 165 162 153 147 146 147 131 131 137 133
238 247 260 261 274 260 253 261 273 275 260 253 248 241 240 238 233 224 215 205 198 194 192 190 187 184 180 175 170 168 171 174 172 173 175 172 172 169 166 165 163 157 153 155 149 138 124 131 136
271 273 274 274 282 281 264 268 271 264 258 256 252 244 242 243 241 227 216 204 194 191 190 191 189 185 180 181 181 181 184 181 180 180 177 176 175 173 172 170 166 167 170 169 155 138 134 127 128
261 268 272 283 278 276 271 272 270 254 245 243 244 243 240 247 250 232 215 203 197 194 192 192 193 188 186 189 188 185 177 178 179 179 180 180 179 178 179 175 175 173 168 165 164 148 142 142 155
257 253 261 272 294 277 277 277 254 248 242 242 239 237 235 236 238 233 218 207 201 199 196 195 194 192 190 186 177 168 163 162 177 186 188 187 184 182 182 180 176 175 175 180 178 168 159 159 179
270 252 255 269 275 272 244 280 266 245 248 243 240 236 236 236 231 227 221 211 206 205 200 198 195 193 191 184 182 183 185 189 192 186 185 183 186 185 184 181 180 178 181 180 181 178 169 156 169
252 261 257 260 256 263 236 254 277 240 248 248 241 235 235 234 228 225 221 215 211 206 201 200 196 195 192 189 188 190 196 195 177 172 177 183 188 189 187 184 183 182 184 183 180 177 178 173 170
256 277 277 262 239 253 225 218 270 229 235 250 250 245 240 239 235 230 224 218 213 208 203 199 198 199 194 192 191 194 196 190 178 181 185 187 188 190 191 188 187 186 186 186 185 183 183 186 178
203 191 292 284 233 248 213 216 248 242 238 238 246 247 240 239 237 240 235 227 219 211 204 200 200 202 197 195 196 197 197 194 192 188 189 187 187 192 194 190 190 189 188 185 181 183 188 187 185
217 185 209 237 236 267 233 233 250 247 251 253 256 258 257 258 252 248 240 230 226 218 208 200 202 204 201 198 200 199 196 195 198 194 190 191 195 195 188 190 190 189 185 183 182 186 190 189 192
212 212 209 248 270 260 250 268 287 265 288 286 291 314 301 279 271 267 260 239 233 224 214 204 204 204 204 202 201 200 198 197 197 194 192 192 191 185 182 187 188 187 185 184 181 189 189 186 192
205 192 164 207 250 255 264 255 254 272 273 293 313 312 304 299 292 288 278 262 246 234 221 210 207 206 204 203 201 201 200 200 196 191 195 193 188 182 181 185 187 186 185 183 182 183 181 182 187
191 193 207 215 222 246 274 266 231 227 268 304 309 312 315 310 299 297 298 282 264 249 232 217 211 209 204 203 202 200 200 198 193 194 196 193 186 183 184 185 185 186 185 183 184 184 178 184 185
205 204 183 212 246 233 260 271 283 300 312 324 316 317 318 309 301 296 295 298 284 260 243 229 220 213 206 202 202 201 197 195 194 196 194 189 187 186 185 181 183 185 185 183 185 184 183 185 187